Powrót do katalogu

VEGA

AktywnyNaukaSSO
NORAD 68430·PAYLOAD·🇫🇷 France

Wystrzelony Mar 30, 2026 z Vandenberg Space Force Base

Loading…

Następne Przeloty (najbliższe 24 godziny)

TLE

ŚwieżeSource: Space-Track

Epoka: Sep 14, 2026, 08:07 UTC

1 68430U 26067Q   26257.33850487  .00005408  00000-0  25303-3 0  9995
2 68430  97.4583 214.6970 0002404  71.5124 288.6372 15.20164450 25481

Śledź VEGA w czasie rzeczywistym z AllMySat

Download on the App Store